P/2003 S1 (NEAT)                                                      

Epoch 2004 Mar. 16.0 TT = JDT 2453080.5  

T 2004 Mar. 27.63524 TT                                 Nakano

q   2.5956302            (2000.0)            P               Q

n   0.10131045     Peri.  175.82131     +0.54593167     -0.83291134

a   4.5572188      Node   241.06688     +0.76566035     +0.53990738

e   0.4304355      Incl.    5.94521     +0.34018061     +0.12148548

P   9.73 (+/- 0.01 day)

From 321 observations 2003 July 29-2005 Feb. 17, mean residual 0".67.

Residuals in seconds of arc 

2003/                     030929 300  0.3-  1.9+    031101 900 (2.9+  1.7+) 

030729 608  0.7+  0.2+    030929 300  1.2-  1.4+    031101 170  0.3+  0.5-  

030904 704  0.2+  1.7+    030929 A50  0.4+  0.6+    031101 170  0.0   0.5-  

030904 704  0.8-  1.1+    030929 A50  0.0   0.4+    031101 170  0.1-  0.4-  

030904 704  0.2+  0.4-    030929 A50  0.4+  0.3+    031101 213  0.1-  1.0-  

030920 704  0.5+  0.2+    030930 372  0.4+  0.1-    031101 213  0.2+  0.7-  

030920 704  0.4+  0.3+    030930 360  0.7+  0.1-    031101 213  1.4-  0.7-  

030920 704  0.4+  0.4-    030930 360  0.3+  0.1-    031102 H41  1.5+  1.1+  

030920 704  0.3-  0.6+    031001 213  1.3+  0.8-    031102 H41  0.3+  0.1-  

030920 704  1.7-  0.3+    031001 213  1.3+  0.9-    031102 H41  0.8+  0.1+  

030921 644  0.3+  0.1+    031001 213 (0.0   2.4-)   031102 H41  0.8-  0.0   

030921 644  0.3+  0.3+    031002 H41  0.9+  0.2-    031103 850  0.7-  0.1+  

030921 644  0.1+  0.0     031002 H41  1.2-  0.8-    031103 850  0.0   0.2-  

030922 699 (2.4-  1.5-)   031002 372  0.7-  0.4-    031103 850  0.3-  0.2+  

030922 699  0.9-  0.9-    031002 620  0.2+  0.1-    031103 850  0.5-  0.0   

030922 699 (1.0-  2.3-)   031002 620  0.7+  0.6-    031103 H41  0.2-  0.8+  

030922 699  0.7-  1.7-    031002 A33  0.0   0.2+    031103 H41  1.5+  0.5+  

030923 608  0.7-  0.0     031003 A33  0.1+  0.0     031114 213  0.9+  0.3+  

030923 608  0.2-  0.3-    031003 785  1.1-  0.6-    031114 213  1.1+  0.5-  

030923 608  0.6-  0.2-    031003 785  0.3+  0.1+    031114 213  0.3+  0.5-  

030923 A50  0.6+  0.5+    031003 291  0.3-  1.3-    031116 360  0.1+  0.1-  

030923 A50  0.2+  0.4+    031003 291  0.4-  0.7-    031116 360  0.2-  0.3-  

030923 J95  0.7+  0.0     031003 291  0.5-  0.6-    031117 900  0.9-  0.6+  

030923 J95  0.4-  0.1-    031004 785 (0.5+  2.1-)   031117 900  1.9+  0.4+  

030923 A50 (4.0+  2.1+)   031004 785  0.3-  0.3-    031119 750  0.4-  0.1+  

030923 J95  0.2+  0.1+    031004 D83  0.6+  0.8-    031123 H72 (4.2+  0.2+) 

030923 J95  0.1-  0.1-    031004 D83  0.2-  0.2-    031123 H72  0.4+  0.9-  

030923 J95  0.2+  0.0     031004 D83  0.4-  0.5-    031123 H72  1.4-  1.3-  

030923 J95  0.5+  0.1+    031004 213  0.9+  0.0     031123 H72 (2.3+  0.6-) 

030924 H59  0.6+  0.2-    031004 213  0.7+  1.0-    031123 900  0.9+  0.5+  

030924 785  0.3-  0.2-    031004 213 (4.4-  0.7-)   031123 900  1.4+  0.7+  

030924 785  0.2-  0.0     031005 170  0.2+  0.5-    031128 699  1.1+  0.3+  

030924 H59  0.8+  0.7+    031006 785  1.8-  1.1+    031128 699  0.1-  1.7-  

030924 H59  0.6+  0.3+    031006 785 (0.9-  2.8+)   031128 699  1.1+  0.2+  

030924 785  0.4+  1.4+    031007 204  0.3-  0.1-    031128 699  0.8-  0.6-  

030924 H59  0.5-  1.1-    031007 204  0.3-  0.1-    031130 704  1.2+  1.2+  

030924 608  0.0   0.9-    031007 204  0.3-  0.1-    031130 704  0.1+  0.5+  

030924 608  0.3+  0.6-    031008 673  0.3+  0.6+    031130 704  1.2+  0.8+  

030924 608  0.3+  0.8-    031008 673  0.3+  0.6+    031206 170  0.0   0.3+  

030924 608  0.6-  0.3-    031008 673  0.6+  0.4+    031206 170  0.1+  0.1-  

030924 608  0.2-  0.0     031015 699  0.2-  0.4-    031207 J97 (3.5-  0.0 ) 

030924 608  0.3-  0.2-    031015 699  0.2-  0.1-    031207 J97 (2.9+  1.6+) 

030924 151  0.0   0.1-    031015 H41  1.1-  0.2+    031210 J97  0.8-  1.7+  

030924 151  0.0   0.5-    031015 H41  0.4-  0.8-    031210 J97 (6.6-  1.1+) 

030924 151  0.1-  0.7-    031015 699  0.1+  0.1-    031212 J97 (4.3-  0.6-) 

030924 246  0.2-  0.3+    031015 699  0.6-  0.2+    031212 213  0.2+  0.1-  

030924 246  0.0   1.2+    031016 691  0.5-  0.5-    031212 J97 (4.8-  1.9+) 

030924 246  0.2+  0.4+    031016 691  0.2-  0.5-    031212 213  0.4+  0.5+  

030924 246  0.1-  0.3+    031016 691  0.2-  0.6-    031212 213 (4.6-  0.4-) 

030924 151  0.9+  1.0-    031016 349  0.2-  0.9-    031214 704  0.3-  0.5+  

030924 246  0.2-  0.2+    031016 349  0.4+  0.3-    031214 704  0.3+  0.2+  

030924 118  0.0   0.2+    031016 349  0.2+  0.9-    031214 704  0.2+  0.6+  

030924 118  0.3-  0.1-    031016 349  0.3+  0.3-    031214 360  0.5-  0.2+  

030924 118  0.6+  0.3-    031016 349  0.3-  0.9-    031214 360  0.4-  0.2+  

030924 118  1.7+  0.1+    031017 H41  0.2-  1.0-    031214 D83  0.1-  0.4-  

030925 621  0.7+  0.2-    031017 H41  0.5-  0.2-    031214 D83  0.2-  0.2-  

030925 621  0.6-  0.5-    031017 360  0.3+  0.4-    031214 J97  0.6-  0.4+  

030925 621  0.6-  0.4-    031017 360  0.5+  0.4-    031214 J97 (3.1-  0.3-) 

030925 H41  0.4+  0.6+    031017 A41  0.5-  1.4+    031221 349  1.6+  0.7-  

030925 H41  0.4-  0.8-    031017 A41  0.4+  0.1-    031221 349  0.5+  1.3+  

030925 H41  0.9+  0.0     031017 A41  0.3+  0.2+    031222 704  1.1-  0.5-  

030925 215  0.5-  0.4+    031018 H41  0.2-  0.5-    031222 704  0.3+  0.6+  

030925 215  0.0   0.4+    031018 H41  0.4-  1.2-    031222 704  0.5-  0.7-  

030925 215  0.3+  0.3+    031018 246  0.3-  0.1+    031222 704  0.4-  0.2-  

030925 621  0.9+  0.2+    031018 246  0.1-  0.2+    031222 704  1.0+  0.3+  

030925 621  0.3+  0.7-    031018 246  0.2-  0.3-    031222 608  0.4-  0.5-  

030925 621  0.8+  0.5-    031018 246  0.1-  0.2-    031222 608  0.2-  0.9-  

030925 A41  0.8-  1.1+    031018 246  0.5-  0.2-    031222 608  0.2-  1.2-  

030925 621  0.5+  0.1+    031018 246  0.5-  0.0     031223 215 (2.2-  1.5-) 

030925 621  0.7+  0.2-    031019 H41  0.3-  0.6-    031227 704  0.0   0.9+  

030925 A41  1.8-  0.1+    031019 H41  1.3-  1.8-    031227 704  0.2-  0.3+  

030926 118  1.0+  0.8+    031019 213  0.4+  1.4+    031227 704  0.2+  0.6+  

030926 118  0.2+  0.3+    031019 213  0.4+  1.4-    031227 704  0.1+  0.0   

030926 118  0.2-  0.5+    031020 785  0.5-  1.9+    031227 704  0.3+  0.4+  

030926 H41  1.5+  0.7-    031020 785 (2.0-  1.6-)   2004/                   

030926 H41  1.1+  0.2-    031020 785 (1.5-  4.4-)   040110 204  0.9-  1.2+  

030926 342  1.4-  0.0     031021 704  0.4+  0.5+    040110 204  0.8+  1.4+  

030926 342  1.4-  0.2+    031021 704  0.0   0.6-    040117 360  0.4-  0.1+  

030926 372  0.6-  0.6+    031021 704  0.4+  0.9-    040117 360  0.4-  0.2-  

030926 372  1.0+  0.7+    031021 704  0.7-  0.1+    040202 699  1.2-  1.4+  

030926 360  0.1+  0.3+    031021 704  1.1-  0.3-    040202 699  0.4+  0.6+  

030926 360  0.5+  0.2+    031022 H41  0.2-  0.6-    040202 699  0.3-  0.5+  

030926 130  0.3+  0.7-    031022 H41  0.8+  0.9-    040202 699  0.5-  1.5+  

030926 130  0.3-  1.3-    031023 H41  0.3+  0.3-    040209 699  0.6+  1.0+  

030927 642  0.6+  0.6-    031023 H41  0.1+  1.7+    040209 699  0.3-  0.3+  

030927 704  0.2+  0.3+    031024 H41  0.8+  0.4+    040209 699  0.2-  1.0+  

030927 642 (0.7+  2.3+)   031024 H41  1.1+  0.9+    040209 699  0.3-  0.7+  

030927 642  0.0   0.2+    031024 360  0.0   0.1-    040210 360  0.4-  0.1+  

030927 704  0.6+  0.4+    031024 360  0.1+  0.1+    040210 360  0.3-  0.0   

030927 704  0.4+  0.1+    031028 246  0.2-  0.2+    040211 699  0.1-  1.8+  

030927 704  0.2-  0.3-    031028 246  0.2-  0.2+    040211 699  0.1+  0.8+  

030927 704  0.1+  0.2+    031028 246  0.2-  0.3+    040211 699  0.4-  0.9+  

030927 372  0.7-  0.3+    031028 246  0.4-  0.2+    040211 699  1.1-  0.9+  

030927 372  0.7+  1.0+    031028 246  0.0   0.3+    040218 A33  0.3+  1.5+  

030928 H44  0.6+  0.1+    031028 246  0.1+  0.3+    040219 703 (1.3+  2.8+) 

030928 642  0.9-  0.3-    031028 246  0.1-  0.1-    040219 703  0.2+  0.9+  

030928 642  0.1+  0.5-    031029 342  0.5+  0.1-    040219 703 (0.4+  2.5+) 

030928 642  0.5+  0.4-    031029 342  0.1+  0.8-    040219 703  1.6-  0.8+  

030928 H44  0.3+  0.2+    031029 D83  1.0-  1.1-    040220 703  0.8+  1.8+  

030928 H41 (2.9-  0.7-)   031029 D83  0.1-  0.2-    040220 703 (0.1+  2.5+) 

030928 H41  0.9+  0.0     031029 360  0.0   0.4-    040220 703  1.1+  0.6+  

030928 300 (0.6+  2.0+)   031029 360  0.0   0.4-    040220 703 (3.7+  2.7+) 

030928 300 (0.2+  2.7+)   031030 704  0.4+  0.3+    040220 A33  0.2-  0.8-  

030928 300 (0.8-  2.4+)   031030 704  0.5+  0.6+    2005/                   

030928 300 (0.2+  3.1+)   031030 704  0.6-  0.2+    050212 941  0.0   0.8-  

030928 900  0.6+  0.4+    031030 704  0.1+  0.5-    050212 941  0.1-  0.9-  

030928 900  1.0-  0.2+    031030 704  0.8-  0.2+    050212 941  0.3-  1.1-  

030929 699  1.3-  0.8-    031030 H41  0.6-  0.1-    050212 941  0.4-  1.2-  

030929 699  0.7-  0.5-    031030 704  0.5+  0.2+    050212 941  0.5-  1.2-  

030929 699  0.0   0.4-    031030 H41  0.6-  0.1-    050212 941  0.5-  1.4-  

030929 699  0.4-  0.4-    031030 H41  0.1-  0.8+    050212 941  0.4+  0.2+  

030929 785  0.7-  0.8+    031030 704  0.7-  0.8-    050212 941  0.4+  0.0   

030929 642  0.8+  0.9-    031030 704  0.7-  0.1-    050212 941  0.3+  0.2-  

030929 785 (0.3-  2.5-)   031101 704  0.8+  0.5+    050212 941  0.2-  0.8-  

030929 642  1.0-  1.8-    031101 704  0.5+  0.8+    050212 941  0.1-  0.6-  

030929 H41  1.0+  1.2-    031101 704  1.5-  0.3-    050217 213  0.7-  0.1+  

030929 H41  1.3+  0.3-    031101 704  1.1-  0.2-    050217 213  0.7-  0.3+  

030929 300  0.7-  1.9+    031101 704  0.2+  0.5-                            

030929 300  0.5-  0.7+    031101 900  0.9-  0.4-                            



NAKANO

         **** Don't distribute anyone except personal use only ****

                (C) Copyright 2005 OAA/ComputingSection

